Torna al catalogo

STARLINK-33710

AttivoComunicazioniVLEO
NORAD 63434·PAYLOAD·🇺🇸 United States

Lanciato Apr 4, 2025 da Vandenberg Space Force Base

Loading…

Prossimi Passaggi (prossime 24 ore)

TLE

AggiornatoSource: CelesTrak SupGP

Epoca: Sep 15, 2026, 03:53 UTC

1 63434C 25069B   26258.16229167  .00055281  00000+0  16331-2 0  2583
2 63434  53.1600 333.0055 0001367  91.7445 348.1673 15.34366617    18

Traccia STARLINK-33710 in tempo reale con AllMySat

Download on the App Store